Regional Weather Roundup
Issued by NWS

Home | Current Version | Previous Version | Text Only | Print | Product List | Glossary On
Versions: 1 2 3 4 5 6 7 8 9 10 11 12 13 14 15 16 17 18 19 20 21 22 23 24 25 26 27 28 29 30 31 32 33 34 35 36 37 38 39 40 41 42 43 44 45 46 47 48 49 50
000
ASUS43 KDMX 270506
RWRIA

WEATHER ROUNDUP FOR IOWA
NATIONAL WEATHER SERVICE DES MOINES IA
1200 AM CDT THU JUL 27 2017

NOTE: "FAIR" INDICATES FEW OR NO CLOUDS BELOW 12,000 FEET WITH NO
SIGNIFICANT WEATHER AND/OR OBSTRUCTIONS TO VISIBILITY.

* - THESE STATIONS ARE NOT NWS STATIONS...THUS NOT UNDER NWS
QUALITY CONTROL.  THEY ALSO DO NOT REPORT WEATHER SUCH
AS PRECIPITATION OR FOG.

IAZ001>003-012>014-020>022-031>034-043>046-270600-
   NORTHWEST IOWA

CITY           SKY/WX    TMP DP  RH WIND       PRES   REMARKS
CARROLL *      CLOUDY    70  70 100 CALM      30.02S
CHEROKEE *     PTCLDY    69  65  86 N5        30.06R
DENISON *      CLOUDY    72  70  94 CALM      30.05R
ORANGE CITY *  CLEAR     70  63  78 NE6       30.07S
SHELDON *      CLEAR     61  61 100 NE3       30.06S
SIOUX CITY     CLEAR     73  63  70 NE10      30.05R
SPENCER        CLEAR     63  61  93 NW6       30.07R
STORM LAKE *   MOCLDY    72  63  73 NE13      30.06R
$$

IAZ055>058-069>071-079>083-090>094-270600-
   SOUTHWEST IOWA

CITY           SKY/WX    TMP DP  RH WIND       PRES   REMARKS
ATLANTIC *     CLEAR     70  70 100 N7        30.02R
AUDUBON *      CLOUDY    72  70  94 CALM      30.04S
CLARINDA *       N/A     75  75 100 CALM      30.03R FOG
COUNCIL BLFS * MOCLDY    73  73 100 N3        30.02S FOG
CRESTON *      CLOUDY    73  73 100 N6        30.02R
HARLAN  *      CLEAR     70  70 100 N5        30.06S FOG
LAMONI         LGT RAIN  76  75  97 N7        29.99S
RED OAK *      CLEAR     73  73 100 N6        30.01S
SHENANDOAH *   CLOUDY    75  75 100 CALM      30.01R
$$

IAZ047>049-059>061-072>074-084-270600-
   CENTRAL IOWA

CITY           SKY/WX    TMP DP  RH WIND       PRES   REMARKS
AMES           MOCLDY    70  70 100 N5        30.00S
ANKENY *       MOCLDY    72  70  94 N5        30.00S
BOONE *        CLOUDY    70  68  94 N6        30.01S
CHARITON *     CLOUDY    73  73 100 CALM      29.98S
DES MOINES     CLOUDY    75  73  93 N5        29.98S
GRINNELL*      PTCLDY    71  69  95 CALM      30.00S FOG
KNOXVILLE *    CLOUDY    75  72  88 N5        29.97S
MARSHALLTOWN   CLOUDY    72  70  93 NW3       29.99R
NEWTON *       CLOUDY    73  72  94 N6        29.99S
PELLA *        CLOUDY    72  71  96 CALM      29.99F FOG
PERRY *          N/A     70  69  98 NW3       30.01S FOG
$$

IAZ004>006-015-016-023>025-035-036-270600-
   NORTH CENTRAL IOWA

CITY           SKY/WX    TMP DP  RH WIND       PRES   REMARKS
ALGONA *       CLEAR     68  66  94 CALM      30.04S
CLARION *      PTCLDY    68  68 100 CALM      30.02S FOG
ESTHERVILLE    CLEAR     62  62 100 NW6       30.05S
FORT DODGE *   PTCLDY    70  66  88 NW3       30.04R
MASON CITY     PTCLDY    68  66  93 N8        30.04R
FOREST CITY *    N/A     68  64  88 N5        30.03S
WEBSTER CITY * CLOUDY    70  70 100 CALM      30.00S FOG
IOWA FALLS *   CLOUDY    70  68  93 NW3       30.03R
$$

IAZ007>011-017>019-026>030-037>042-050>054-066-270600-
   NORTHEAST IOWA

CITY           SKY/WX    TMP DP  RH WIND       PRES   REMARKS
CHARLES CITY * CLOUDY    72  72 100 NW5       30.02R
DECORAH *      MOCLDY    72  70  94 CALM      30.00R
DUBUQUE          N/A    N/A N/A N/A MISG      29.99R
MONTICELLO *   CLOUDY    72  72 100 CALM      29.97S
OELWEIN *      CLOUDY    72  70  94 N8        30.01R
WATERLOO       CLOUDY    73  67  81 NW7       29.98S
$$

IAZ064-065-067-068-078-270600-
   EAST CENTRAL IOWA

CITY           SKY/WX    TMP DP  RH WIND       PRES   REMARKS
DAVENPORT      CLOUDY    72  70  93 CALM      29.98F
IOWA CITY      CLOUDY    76  73  91 CALM      29.98S
MT. PLEASANT * CLOUDY    74  74 100 CALM      29.96F
MUSCATINE *    LGT RAIN  73  72  94 CALM      29.97S
QUAD CITIES    CLOUDY    74  71  91 CALM      29.96R
$$

IAZ062-063-075>077-085>089-095>099-270600-
   SOUTHEAST IOWA

CITY           SKY/WX    TMP DP  RH WIND       PRES   REMARKS
BURLINGTON     CLOUDY    74  74 100 CALM      29.96S
FAIRFIELD *    CLOUDY    75  70  83 N8G15     29.97S
FORT MADISON * CLOUDY    75  75 100 CALM      29.97S
KEOKUK *       CLOUDY    75  75 100 N7        29.95F
OSKALOOSA *    LGT RAIN  73  71  93 N6        29.98F
CENTERVILLE *    N/A     73  72  94 CALM      29.99S
OTTUMWA        LGT RAIN  75  73  93 N7        29.96F
WASHINGTON *   MOCLDY    75  73  94 W7        29.98S
$$

ABBREVIATIONS USED IN REMARKS
   TC - TEMPERATURES IN CELSIUS
  WCI - WIND CHILL INDEX
   HX - HEAT INDEX
  VSB - VISIBILITY
$$





USA.gov is the U.S. government's official web portal to all federal, state and local government web resources and services.